Simultaneous Nadir Overpasses (SNOs) Predictions

Prediction of SNOs between LANDSAT-8 and METOP-B Satellite Orbit:

Table of predicted SNOs for the next 14.0 days since TLE Epoch: 10/26/2016
Index Date (LANDSAT-8) Time (LANDSAT-8) Lat,Lon (LANDSAT-8) SZA (LANDSAT-8 ) Date (METOP-B) Time (METOP-B) Lat,Lon (METOP-B) SZA (METOP-B ) Distance(km) Time Diff (sec)
1 10/28/2016 18:14:33 81.08, -54.30 96.86 10/28/2016 18:14:09 81.08, -54.35 96.84 0.96 24
2 10/28/2016 19:03:59 -81.10, 113.65 83.09 10/28/2016 19:04:48 -81.10, 113.59 83.07 0.94 49
3 10/31/2016 13:48:48 81.09, 12.25 97.79 10/31/2016 13:48:32 81.08, 12.10 97.77 2.81 16
4 10/31/2016 14:38:14 -81.11,-179.78 82.15 10/31/2016 14:39:11 -81.11,-179.94 82.15 2.89 57
5 11/03/2016 09:23:02 81.09, 78.74 98.69 11/03/2016 09:22:53 81.10, 78.90 98.70 2.81 9
6 11/03/2016 10:12:28 -81.12,-113.27 81.25 11/03/2016 10:13:32 -81.12,-113.12 81.21 2.62 64
7 11/06/2016 04:08:09 -80.61, -28.66 81.48 11/06/2016 04:06:55 -80.76, -29.17 81.43 19.53 74
8 11/06/2016 04:57:17 81.09, 145.16 99.53 11/06/2016 04:57:16 81.10, 145.31 99.55 2.58 1
9 11/06/2016 05:46:43 -81.12, -46.82 80.41 11/06/2016 05:47:55 -81.12, -46.68 80.36 2.37 72
10 11/08/2016 23:42:07 -81.06, 43.54 79.74 11/08/2016 23:41:01 -81.06, 43.35 79.79 3.25 66




NCC Satellite Simultaneous Nadir Overpasses (SNOs) Prediction Service
